sat.trackr.live / text

‹ back to catalog

ONEWEB-0440

NORAD 50503 · 2021-132AL

PAYLOAD ACTIVE UNKNOWN

§ Identity

Operator
Country
UK
Launch date
2021-12-27
Launch site
TYMSC
Launch vehicle
Mass (kg)
RCS (m²)

Purposes: comms

External: N2YO · Heavens-Above · Gunter

§ Orbital elements

Epoch: 2026-09-19T23:10:32.087424Z

Period
109.20 min
Inclination
87.9162°
Eccentricity
0.0002179
Mean motion
13.18684827 rev/d
Perigee alt
1,188.1 km
Apogee alt
1,191.4 km
Semi-major
7,567.9 km
B*
-7.1553e-4
RAAN
316.6245°
Arg perigee
89.7171°
Mean anomaly
270.4211°
Rev number
23,406

§ Raw data

ONEWEB-04401 50503U 21132AL  26262.96564916 -.00000269  00000+0 -71553-3 0  99982 50503  87.9162 316.6245 0002179  89.7171 270.4211 13.18684827234067

JSON: /api/v1/satellites/50503 · /tle

For live sub-satellite position, see the globe view (requires WebGL).

§ Visibility from observer

Set your observer location to see the next 7 days of passes ≥ 10°. The values pass through the URL so the page stays shareable.

No JS? Fill the form by hand. The geolocation button needs JavaScript.